Regional Weather Roundup
Issued by NWS

Home | Current Version | Previous Version | Text Only | Print | Product List | Glossary On
Versions: 1 2 3 4 5 6 7 8 9 10 11 12 13 14 15 16 17 18 19 20 21 22 23 24 25 26 27 28
000
ASUS45 KPSR 212310
RWRAZ

ARIZONA HOURLY REGIONAL WEATHER ROUNDUP
NATIONAL WEATHER SERVICE PHOENIX AZ
400 PM MST FRI JUL 21 2017

NOTE: FAIR INDICATES FEW OR NO CLOUDS BELOW 12,000 FEET WITH NO
SIGNIFICANT WEATHER AND/OR OBSTRUCTIONS TO VISIBILITY.

AZZ001>003-036-220000-
NORTHWEST ARIZONA

CITY           SKY/WX    TMP DP  RH WIND       PRES   REMARKS
BULLHEAD CITY  SUNNY    108  54  16 SE13G18   29.73F HX 106
KINGMAN        MOSUNNY   97  53  22 SW15G22   29.99F
$$

AZZ004>008-015-016-018-220000-
NORTH CENTRAL ARIZONA

CITY           SKY/WX    TMP DP  RH WIND       PRES   REMARKS
GRAND CANYON   PTSUNNY   81  52  36 NW13      30.24F
WILLIAMS       CLOUDY    63  59  88 S8        30.28F
PRESCOTT       CLOUDY    74  61  63 S9        30.16R
FLAGSTAFF      CLOUDY    61  57  87 VRB6      30.30R
PAYSON         CLOUDY    70  61  73 NE22G35   30.20R THUNDER
PAGE           MOSUNNY   88  51  28 NW22G29   30.03R
$$

AZZ009>014-017-220000-
NORTHEAST ARIZONA

CITY           SKY/WX    TMP DP  RH WIND       PRES   REMARKS
WINSLOW        PTSUNNY   87  56  34 W18       30.08S
SAINT JOHNS    LGT RAIN  72  61  68 SW21G30   30.13R
WINDOW ROCK    CLOUDY    77  52  41 W7        30.20F
SHOW LOW       CLOUDY    72  54  53 S12       30.21F
$$

AZZ540-542>544-546-548-220000-
GREATER PHOENIX AREA

CITY           SKY/WX    TMP DP  RH WIND       PRES   REMARKS
PHOENIX        MOSUNNY  102  61  25 SW9       29.78F HX 103
BUCKEYE        SUNNY    104  57  21 W7        29.79F HX 103
GLENDALE       MOSUNNY  102  61  25 SE6       29.80F HX 103
LUKE AFB       SUNNY    103  61  25 S8        29.77F HX 104
DEER VALLEY    SUNNY    101  62  27 W9G20     29.81F HX 102
SCOTTSDALE     MOSUNNY  102  59  24 VRB7      29.83F HX 102
MESA-FALCON    MOSUNNY   99  64  32 W8        29.82F HX 101
MESA-GATEWAY   MOSUNNY   99  64  32 CALM      29.83F HX 101
CHANDLER       SUNNY    102  61  25 W7        29.80F HX 103
$$

AZZ539-553-220000-
SOUTHWEST MARICOPA COUNTY AND PINAL COUNTY

CITY           SKY/WX    TMP DP  RH WIND       PRES   REMARKS
CASA GRANDE    SUNNY     99  62  29 W9        29.83F HX 100
GILA BEND      MOSUNNY  103  59  22 W6        29.77F HX 103
$$

AZZ503-504-507>509-220000-
SOUTHEAST ARIZONA

CITY           SKY/WX    TMP DP  RH WIND       PRES   REMARKS
TUCSON         SUNNY     94  61  33 VRB3      29.94F
DAVIS-MONTHAN  SUNNY     96  63  33 W7        29.93F
RYAN FIELD     SUNNY     93  64  38 W5        29.92F
NOGALES        PTSUNNY   79  65  62 SW8       30.05F THUNDER
SIERRA VISTA   CLOUDY    78  64  63 W10       30.10F
DOUGLAS        CLOUDY    74  66  76 SE5       30.07F
SAFFORD        TSTM      75  66  73 N14G21    29.95S
$$

AZZ532-220000-
SOUTHWEST ARIZONA

CITY           SKY/WX    TMP DP  RH WIND       PRES   REMARKS
YUMA           MOSUNNY  105  61  23 S7        29.74F HX 106
$$

CAZ041-043-047-048-061-525>527-560>570-220000-
SOUTHERN CALIFORNIA

CITY           SKY/WX    TMP DP  RH WIND       PRES   REMARKS
DOWNTOWN L.A.  SUNNY     80  65  59 W6        29.89F
L.A. AIRPORT   MOSUNNY   75  65  70 W16       29.90F
SAN DIEGO      SUNNY     76  63  64 W7        29.92F
BURBANK        SUNNY     86  60  41 S10       29.89F
ONTARIO        SUNNY     93  53  25 W14G21    29.88F
RIVERSIDE      SUNNY     92  59  33 W16       29.87F
PALM SPRINGS   SUNNY    107  44  12 VRB7      29.76F HX 102
EL CENTRO NAS  MOSUNNY  106  57  20 S7        29.72F HX 105
IMPERIAL       CLOUDY   108  66  25 E13       29.70F HX 113
BLYTHE         PTSUNNY  108  61  21 S17       29.74F HX 110
NEEDLES        SUNNY    110  52  14 SW15      29.76F HX 107
$$

NVZ020-UTZ003-220000-
SOUTHERN NEVADA-UTAH

CITY           SKY/WX    TMP DP  RH WIND       PRES   REMARKS
LAS VEGAS      MOSUNNY  104  50  16 VRB3      29.83F HX 101
SALT LAKE CITY MOSUNNY   96  47  18 N15       29.99F
$$

NMZ009-TXZ055-220000-
NEW MEXICO-WEST TEXAS

CITY           SKY/WX    TMP DP  RH WIND       PRES   REMARKS
ALBUQUERQUE    MOSUNNY   88  51  28 SW9G17    30.08F
EL PASO        PTSUNNY   89  58  34 E8        30.00F THUNDER
$$


........................KEY........................
SKY/WX - SKY CONDITION/WEATHER
TMP    - TEMPERATURE IN FAHRENHEIT
DP     - DEW POINT IN FAHRENHEIT
RH     - RELATIVE HUMIDITY IN PERCENT
WIND   - DIRECTION AND SPEED IN MILES PER HOUR (MPH)
VRB    - VARIABLE WIND DIRECTION
PRES   - MEAN SEA LEVEL PRESSURE IN INCHES OF MERCURY
         F - FALLING PRESSURE   R - RISING PRESSURE
         S - STEADY PRESSURE
VSB    - VISIBILITY IN MILES
HX     - HEAT INDEX IN FAHRENHEIT
WCI    - WIND CHILL INDEX IN FAHRENHEIT
TC     - TEMPERATURE IN CELSIUS WHICH IS ALSO KNOWN AS
         TEMPERATURE IN CENTIGRADE
AFB    - AIR FORCE BASE
         LUKE AFB IS LUKE AIR FORCE BASE
         DAVIS-MONTHAN IS DAVIS-MONTHAN AIR FORCE BASE
NAS    - NAVAL AIR STATION
         EL CENTRO NAS IS EL CENTRO NAVAL AIR STATION
N/A    - NOT AVAILABLE





USA.gov is the U.S. government's official web portal to all federal, state and local government web resources and services.